Location: Home
(42.5358°N, 72.7383°W)
Time: 22:18:32
(UTC-05:00)

Altair - Pass Details

Date: 09 December 2021
Orbit: 1501 x 1683 km, 47.2° (Epoch: 26 January)

Event Time Altitude Azimuth Distance (km) Brightness Sun altitude
Rises 20:22:54 0° 296° (WNW) 4,682 10.8 -44.2°
Reaches altitude 10° 20:26:05 10° 291° (WNW) 3,681 10.0 -44.8°
Enters shadow 20:32:40 42° 255° (WSW) 2,034 8.2 -46.0°
